Showing default

GJZ 01, 62290

Orbit data source: Space-Track

GJZ 01, 62290 is a payload satellite owned by CASC (CN) in LEO that was launched on Thu, 12 Dec 2024 UTC via a CHANG ZHENG 2D/YZ-3 launch vehicle from the Jiuquan Satellite Launch Center, China (JSC). Payload-class satellites include a variety of spacecraft equipped with specific instruments for various scientific and technological missions. These include communications satellites like Starlink; space stations such as the ISS; scientific satellites like the Hubble; Earth observation satellites from companies like Planet Labs, Umbra, and HawkEye 360; GPS; miniature CubeSats for education and research; and military/defense satellites.

Loading next visibility...
Identifier
62290, 2024-238A
Orbit
LEO
Country
Flag of CNCN / PRC
Related business
Manufacturer
HITSAT
Mission
Operational Civil Communications
Bus & Motor
HARBFLAT, Unknown motor
Mass
~150 kg wet, ~150 kg dry
Launch date (UTC)
2024-12-12 (9 months ago)
Launch vehicle
CHANG ZHENG 2D/YZ-3
Launch site
Jiuquan Satellite Launch Center, China (JSC)
Object type
Payload
Rocket body
Debris
Shape & HBR
Box + 2 Pan, 1.5 m
Radar Cross Section
0.240 m², Large (>1 m²)

Expand to show TLE details & history
Last TLE update: 14 hours ago

TLE from 14 hours ago
0 GJZ 01
1 62290U 24238A   25260.33445712 -.00000083  00000-0  37920-4 0  9999
2 62290  59.9149  32.5212 0026797  56.1079 304.2473 13.75157884 38072
Epoch: 2025-09-17T08:01Z
TLE epoch observation values (Epoch: 2025-09-17T08:01:37.095Z)
Latitude
0.00005°
Longitude
-84.39523°
Altitude
971.534 km
Speed
7.372 km/s
True Right ascension
02h 10m 05s
True Declination
0° 00' 00"
Sunlit
Object was in full shadow at epoch
Visualization orbit readout
Latitude
Unknown
Longitude
Unknown
Altitude
Unknown
Speed
Unknown
Apparent Right ascension
Unknown
Apparent Declination
Unknown
Sunlit
N/A
Visualization observer readout
Local Sidereal Time
15:04:34
Azimuth
Unknown
Elevation
Unknown
Doppler factor
Unknown
Orbital elements
Apogee altitude
1,000.098 km
Perigee altitude
960.661 km
Semi-major axis
7,358.517 km
Eccentricity
0.00268
Inclination
59.9149°
RAAN
32.5212°
Arg. of periapsis
56.1079°
True anomaly
303.99299°
Mean anomaly
304.2473°
Eccentric anomaly
304.12019°
Mean motion
3.43841 °/min
Orbital period
104.7 mins
BSTAR
0.00003792
Loading maneuver chart data...
Computing Atmospheric mass density...
Loading historical data...
Loading historical data...
Loading historical data...
Loading historical data...
Loading historical data...
Loading historical data...
Loading historical data...
Other satellites on launch #238 in the year 2024 (2024-12-12 UTC)

Documentation

Showing up to 5 results
|